Other Public Products
Issued by NWS Grand Forks, ND

Home | Current Version | Previous Version | Text Only | Print | Product List | Glossary On
Versions: 1 2 3 4 5 6 7 8 9 10 11 12 13 14 15 16 17 18 19 20 21 22 23 24 25 26 27 28 29 30 31 32 33 34 35 36 37 38 39 40 41 42 43 44 45 46 47 48 49 50
000
FPUS83 KFGF 180510
OPUFGF
PRAIRIE TO PINES WEATHER ROUNDUP
NATIONAL WEATHER SERVICE EASTERN NORTH DAKOTA/GRAND FORKS ND
1200 AM CDT FRI APR 18 2014

 **SATELLITE DATA USED TO AUGMENT SKY COVER AT AUTOMATED STATIONS**
 *****  WEATHER ACROSS EASTERN NORTH DAKOTA  *****

CITY           SKY/WX    TMP DP  RH WIND       PRES   REMARKS
GRAND FORKS    CLOUDY    33  21  61 NE6       30.29F
GRAND FORKS AF CLOUDY    33  17  51 E6        30.29F
GRAND CITY NWS   N/A     34 N/A N/A NE5         N/A
BUXTON         NOT AVBL
DEVILS LAKE    CLOUDY    34  16  47 E16       30.23S WCI  23
FARGO          CLOUDY    34  20  56 NE8       30.28F
WAHPETON ARPT  CLOUDY    34  19  55 SE5       30.29R
$$

 *****  WEATHER ACROSS CENTRAL AND WESTERN NORTH DAKOTA  *****

CITY           SKY/WX    TMP DP  RH WIND       PRES   REMARKS
JAMESTOWN      CLOUDY    32  19  58 E9        30.21S WCI  24
BISMARCK       CLEAR     31  23  72 SE7       30.13F WCI  24
MINOT          CLOUDY    35  21  56 E13       30.12S
MINOT AFB      CLOUDY    34  22  61 SE15      30.11F WCI  24
GARRISON         N/A     35  24  64 SE10      30.09F
WILLISTON      MOCLDY    39  26  59 SE10      30.00F
DICKINSON      MOCLDY    35  24  64 SE14      29.99F
HETTINGER      MOCLDY    34  25  69 E12       30.01F
$$

 *****  OTHER OBSERVATIONS NORTHEAST NORTH DAKOTA  *****

CITY           SKY/WX    TMP DP  RH WIND       PRES   REMARKS
WALHALLA       FAIR      28  18  64 CALM      30.30S
LANGDON        CLOUDY    32  16  51 E10       30.24F WCI  24
CAVALIER       FAIR      30  19  64 E5        30.30S
GRAFTON        FAIR      28  19  69 E8        30.30S WCI  20
CANDO          CLOUDY    32  18  55 E14       30.23S WCI  22
FORT TOTTEN    NOT AVBL
ROLLA          CLOUDY    30  18  59 SE16      30.21F WCI  19
RUGBY          MOCLDY    32  18  55 SE18      30.18S WCI  20
 ***** THE ABOVE OBSERVATIONS ARE NON NWS ARE NOT QUALITY
        CONTROLLED AND MAY MIS-REPORT RAIN FOR SNOW...
$$

 *****  OTHER OBSERVATIONS SOUTHEAST NORTH DAKOTA *****

CITY           SKY/WX    TMP DP  RH WIND       PRES   REMARKS
COOPERSTOWN    CLOUDY    32  19  59 E13       30.25R WCI  22
VALLEY CITY    NOT AVBL
OAKES          CLOUDY    34  23  64 E9        30.22F
GWINNER        CLOUDY    32  25  74 E5        30.26F
SHEYENNE NWR     N/A     30  23  74 SE2       29.95S
BUFFALO        NOT AVBL
WYNDMERE       NOT AVBL
 ***** THE ABOVE OBSERVATIONS ARE NON NWS ARE NOT QUALITY
       CONTROLLED AND MAY MIS-REPORT RAIN FOR SNOW...
$$

  *****  WEATHER ACROSS NORTHERN MINNESOTA  *****

CITY           SKY/WX    TMP DP  RH WIND       PRES   REMARKS
FLAG ISLAND    CLEAR     27  10  50 N3        30.30S
WARROAD        CLEAR     25  16  68 CALM      30.31S
ROSEAU         CLEAR     28  18  64 CALM      30.31S
HALLOCK        CLOUDY    30  19  64 E7        30.31S WCI  23
THF RVR FALLS  PTCLDY    30  18  59 N3        30.31R
HALSTAD          N/A     32  23  70 NE7         N/A
FOSSTON        MOCLDY    27  16  63 CALM      30.29S
BAUDETTE       CLEAR     24  17  74 CALM      30.30S
WASKISH        PTCLDY    23  18  80 CALM      30.30R
CROOKSTON      PTCLDY    32  21  64 NE7       30.31S
$$
  *****  WEATHER ACROSS CENTRAL AND WEST MINNESOTA  *****

CITY           SKY/WX    TMP DP  RH WIND       PRES   REMARKS
BEMIDJI        MOCLDY    28   9  45 N3        30.28R
PARK RAPIDS    PTCLDY    29   9  43 N6        30.27R WCI  23
WADENA         PTCLDY    28  16  59 NW5       30.27S WCI  23
DETROIT LAKES  PTCLDY    32  19  59 NE3       30.29S
MOORHEAD       NOT AVBL
FERGUS FALLS   PTCLDY    32  18  55 E3        30.27S
ELBOW LAKE     MOCLDY    32  22  68 CALM      30.28F
MORRIS MN      CLEAR     28  25  86 S3        30.28F
STAPLES        CLEAR     28  18  64 W3        30.27S
WHEATON        CLOUDY    34  27  75 E6        30.30S
$$
  *****  WEATHER ELSEWHERE ACROSS MINNESOTA  *****

CITY           SKY/WX    TMP DP  RH WIND       PRES   REMARKS
DULUTH         CLEAR     21  16  81 CALM      30.28S
INTRNTL FALLS  CLEAR     22  19  89 CALM      30.30S
ELY            CLEAR     25  19  80 CALM      30.29R
CLOQUET        PTCLDY    25  21  86 CALM      30.30R
BRAINERD       PTCLDY    34  20  56 E3        30.28R
HIBBING        PTCLDY    23  19  85 CALM      30.29S
ALEXANDRIA     CLEAR     30  21  69 W6        30.29R WCI  24
SAINT CLOUD    CLEAR     25  20  81 W3        30.30R
MINNEAPOLIS    CLEAR     34  26  72 CALM      30.32R
$$

  *****  WEATHER ACROSS SOUTH DAKOTA  *****

CITY           SKY/WX    TMP DP  RH WIND       PRES   REMARKS
SIOUX FALLS    CLOUDY    36  26  67 E12       30.25F
BROOKINGS      NOT AVBL
WATERTOWN      CLOUDY    32  18  56 SE7       30.25S
HURON          PTCLDY    37  27  67 SE14      30.20F
SISSETON         N/A     33  22  63 SW7       30.26F
ABERDEEN       CLOUDY    36  20  52 SE9       30.21F
MITCHELL       MOCLDY    38  25  59 SE13      30.21F
PIERRE         CLOUDY    38  25  59 SE16      30.09S
MOBRIDGE       PTCLDY    33  22  63 SE15      30.10F WCI  23
RAPID CITY     MOCLDY    40  33  76 SE9       29.96F
$$

  *****  SOME WEATHER IN NEARBY STATES *****

CITY           SKY/WX    TMP DP  RH WIND       PRES   REMARKS
GLASGOW MT     MOCLDY    44  32  62 E22       29.81F
GREAT FALLS MT LGT RAIN  47  42  83 E10       29.71F
CHEYENNE WY    PTCLDY    42  26  53 SW8       30.00F
SCOTTSBLUFF NE CLEAR     43  36  76 E15       29.95F
OMAHA NE       PTCLDY    40  29  64 CALM      30.27S
DES MOINES IA  CLEAR     43  31  62 E8        30.29S
DAVENPORT IA   PTCLDY    36  31  82 NW8       30.30R
CHICAGO IL     CLOUDY    49  37  63 E6        30.24S
EAU CLAIRE WI  CLEAR     27  25  92 CALM      30.31S
LA CROSSE WI   CLOUDY    39  27  62 N6        30.32S
$$

  *****  SOME NATIONAL WEATHER *****

CITY           SKY/WX    TMP DP  RH WIND       PRES   REMARKS
LA GUARDIA NY  MOCLDY    38  26  62 E6        30.61S
RALEIGH NC     PTCLDY    45  37  73 NE6       30.46F
ATLANTA GA     CLOUDY    58  38  47 E10       30.31S
NEW ORLEANS LA CLOUDY    64  59  83 E13G21    30.12R
OKLAHOMA CITY  CLOUDY    52  41  66 NE7       30.25S
ALBUQUERQUE NM CLEAR     58  25  28 E21       30.14R
SALT LAKE CITY PTCLDY    61  29  29 SE12      29.82F
LOS ANGELES CA CLOUDY    63  52  67 VRB6      29.92R
BOISE ID       RAIN      52  48  86 N16       29.84R FOG
SEATTLE WA     MOCLDY    47  43  86 SW15G28   29.85R
$$

*** WEATHER ACROSS MANITOBA...SASKATCHEWAN AND ONTARIO ***
                ***ONTARIO***

CITY           SKY/WX    TMP DP  RH WIND       PRES   REMARKS
GERALDTON      LGT SNOW  28  27  93 N3        30.24S
THUNDER BAY    FLURRIES  28  27  93 W7        30.28S WCI  21
SIOUX LOOKOUT  CLEAR     19  19 100 S2        30.30S
TORONTO        MOCLDY    41  28  60 SE3       30.34S
BIG TROUT LK   CLEAR     14   3  62 S3        30.30S
PICKLE LAKE    NOT AVBL
DRYDEN         CLEAR     25  19  80 S7        30.29S WCI  17
KENORA         CLEAR     30   1  29 N3        30.30S
$$
                *** MANITOBA***

CITY           SKY/WX    TMP DP  RH WIND       PRES   REMARKS
BRANDON        MOCLDY    27  19  74 E10       30.25F WCI  17
DAUPHIN        CLEAR     23  16  74 SE6       30.27S WCI  16
ISLAND LAKE    CLEAR     19  14  79 CALM      30.33R
PILOT MOUND      N/A     28  19  69 E9          N/A  WCI  20
THE PAS        CLEAR     19   7  58 SE10      30.28S WCI   8
THOMPSON       CLEAR     14   7  73 SW2       30.29S
WINNIPEG       CLEAR     25  10  54 E3        30.33S
LYNN LAKE      CLEAR     19   1  45 S2        30.24S
CHURCHILL      PTCLDY    14  12  92 NE5       30.32R WCI   6
GILLAM         CLEAR     18   7  62 W3        30.29S
$$
                ***SASKATCHEWAN***

CITY           SKY/WX    TMP DP  RH WIND       PRES   REMARKS
ESTEVAN        MOCLDY    32  21  64 SE16      30.06F WCI  21
KINDERSLEY     LGT RAIN  36  34  93 E21       29.76F
LLOYDMINSTER   LGT SNOW  30  28  93 E14G21    29.84F WCI  20
PRINCE ALBERT  CLOUDY    30  18  59 E17G24    30.07F WCI  18
REGINA         CLOUDY    34  23  64 SE28G35   30.00F WCI  20



USA.gov is the U.S. government's official web portal to all federal, state and local government web resources and services.